Location: Observatoire de l'Aigle
(47.0607°N, 71.3152°W)
Time: 07:34:34
(UTC-05:00)

Daily predictions for brighter satellites

Satellite Brightness Start Highest point End
(mag) Time Altitude Azimuth Time Altitude Azimuth Time Altitude Azimuth
Cosmos 1833 Rocket 4.5 17:43:02 10° WSW 17:47:59 31° NW 17:52:57 10° NNE
Cosmos 1745 Rocket 4.0 17:41:42 10° S 17:48:00 76° E 17:54:16 10° NNE
Cosmos 2151 Rocket 4.1 17:44:16 10° SSE 17:48:29 41° E 17:52:44 10° NNE
FENGYUN 3A 4.4 17:44:00 10° ESE 17:48:41 31° ENE 17:53:22 10° N
SJ-6B 3.5 17:46:43 10° SE 17:50:19 33° ENE 17:53:51 10° N
Cosmos 2322 4.0 17:46:20 10° NNW 17:51:51 46° NE 17:57:21 10° SE
Meteor 1-14 Rocket 4.5 17:46:12 10° S 17:52:11 87° W 17:58:13 10° N
Cosmos 1386 Rocket 4.4 17:47:50 10° S 17:53:50 65° E 17:59:48 10° NNE
Cosmos 1238 Rocket 3.2 17:54:11 10° NNE 17:56:43 23° ENE 17:59:11 10° SE
deb Kosmos-1763 4.1 17:55:20 10° SSW 17:59:07 77° ESE 18:02:55 10° NNE
NOSS 2-2 (C) 4.2 17:55:12 10° SW 17:59:18 59° NW 18:04:13 10° NE
NOAA 12 4.1 17:54:46 10° SSE 18:00:02 65° ENE 18:05:20 10° N
Meteor 1-13 Rocket 4.5 17:55:31 10° N 18:00:52 47° ENE 18:06:16 10° SSE
Cosmos 1975 Rocket 4.4 17:57:50 10° NNW 18:01:58 44° W 18:06:04 10° SSW
SKYMED 2 3.6 18:01:20 10° NNE 18:05:43 88° W 18:10:03 10° SSW
Cosmos 1025 Rocket 4.4 18:02:59 10° NNE 18:06:15 20° ENE 18:09:30 10° ESE
COSMOS 2428 3.4 18:01:47 10° NNW 18:07:00 35° NE 18:12:11 10° ESE
ATLAS CENTAUR R/B 3.9 18:06:05 10° WNW 18:08:35 15° NNW 18:11:01 10° N
Meteor 2-4 Rocket 4.2 18:05:05 10° N 18:10:13 36° ENE 18:15:12 10° SE
Cosmos 2237 Rocket 3.8 18:06:57 10° N 18:10:42 17° NE 18:14:01 11° ENE
METEOR-M 4.1 18:05:22 10° SSE 18:10:42 78° ENE 18:16:04 10° NNW
Okean 1-7 Rocket 4.5 18:08:03 10° N 18:12:03 29° ENE 18:15:59 10° SE
Cosmos 1536 3.9 18:13:37 10° SE 18:16:47 23° E 18:19:58 10° NE
H-2A R/B 3.6 18:14:06 10° SE 18:17:17 27° ENE 18:20:31 10° N
Okean 1 3.6 18:14:12 10° NNW 18:18:16 76° W 18:22:19 10° S
Cosmos 1812 4.0 18:15:19 10° NNW 18:19:02 45° W 18:22:44 10° SSW
Cosmos 1536 Rocket 3.6 18:16:29 10° N 18:20:59 88° WSW 18:25:27 10° S
Cosmos 1633 2.8 18:18:58 10° S 18:22:31 48° E 18:26:06 10° NNE
Cosmos 2360 Rocket 2.2 18:20:59 10° NNW 18:26:41 89° ENE 18:32:22 10° SSE
Cosmos 1818 3.5 18:21:38 10° SSW 18:27:05 81° SE 18:32:35 10° NE
Cosmos 2219 Rocket 3.0 18:23:21 10° NNW 18:28:15 30° NE 18:31:49 16° ESE
Cosmos 407 Rocket 3.7 18:23:13 10° SSW 18:28:29 77° WNW 18:33:51 10° NNE
Cosmos 2219 4.0 18:26:23 10° SSE 18:31:13 29° ESE 18:36:03 10° NE
Cosmos 676 Rocket 3.9 18:27:49 10° SSW 18:33:00 85° ESE 18:38:16 10° NNE
Cosmos 1570 Rocket 4.0 18:31:34 10° NNW 18:36:46 60° ENE 18:41:55 10° SE
Meteor 1-11 Rocket 3.8 18:34:46 10° S 18:40:30 64° E 18:46:23 10° NNE
SL-16 R/B 3.9 18:40:44 10° N 18:43:57 15° NE 18:45:26 14° NE
Cosmos 1140 Rocket 3.4 18:42:58 10° SSW 18:48:05 72° ESE 18:53:15 10° NNE
Resurs 01 Rocket 1.5 18:46:14 10° SSE 18:50:38 78° ENE 18:55:03 10° N
Cosmos 1602 3.8 18:47:04 10° S 18:50:56 82° W 18:54:53 10° N
Cosmos 1300 Rocket 3.5 18:48:04 10° S 18:52:28 88° W 18:56:58 10° N
Cosmos 614 Rocket 3.8 18:50:56 10° S 18:55:57 64° ESE 19:00:59 10° NNE
Spot 1 4.1 18:53:24 20° SE 18:56:02 50° ENE 19:00:04 10° N
Cosmos 2181 Rocket 4.3 18:50:38 10° NNW 18:56:51 72° W 19:03:08 10° S
Abrixas rocket 4.5 18:55:46 10° S 18:56:51 14° SSE 18:56:51 14° SSE
Cosmos 1833 4.2 18:52:26 10° SSW 18:58:08 85° WNW 19:03:49 10° NNE
ALOS 2.5 18:54:02 10° S 18:58:40 70° WSW 19:03:21 10° NNW
USA 229 DEB 3.8 18:54:47 10° NW 19:01:55 73° NE 19:07:02 21° SE
Cosmos 2333 Rocket 2.7 18:56:31 10° NNW 19:01:59 42° NE 19:04:11 30° ESE
USA 229 3.8 18:54:53 10° NW 19:02:01 73° NE 19:07:06 21° SE
Spot 2 Rocket 3.5 18:57:58 10° SSE 19:03:02 85° WSW 19:08:09 10° NNW
Cosmos 2208 Rocket 4.0 18:58:13 10° NNW 19:03:43 90° W 19:09:08 10° SSE
Helios 1A 2.9 19:04:16 24° SSE 19:06:41 62° ENE 19:10:48 10° N
NOSS 8 (E) 4.4 19:04:50 10° SSW 19:08:16 72° SE 19:09:18 44° NE
Resurs 1-3 3.6 19:04:08 10° SSE 19:08:32 83° WSW 19:12:57 10° NNW
Cosmos 1980 4.2 19:04:35 10° NNW 19:09:53 39° NE 19:11:15 34° E
NOSS 3-1 (A) 4.5 19:07:22 10° NW 19:14:15 43° NE 19:17:30 30° E
Cosmos 1814 Rocket 4.4 19:10:08 10° N 19:15:00 39° ENE 19:15:33 38° ENE
Cosmos 2074 Rocket 3.9 19:08:49 10° S 19:15:03 74° E 19:21:20 10° NNE
Cosmos 1850 Rocket 3.9 19:09:56 10° SSW 19:15:13 79° ESE 19:20:36 10° NNE
Helios 1B rocket 3.4 19:12:28 10° NNE 19:18:13 31° SSE 19:20:35 10° S
USA 215 4.2 19:12:29 17° NE 19:17:00 39° N 19:22:56 10° WNW
Cosmos 2184 Rocket 3.9 19:11:43 10° S 19:18:00 75° E 19:24:16 10° NNE
ATLAS 2AS CENTAUR R/B 4.3 19:12:22 10° NW 19:19:08 27° NNE 19:22:52 20° NE
Envisat 3.2 19:18:29 42° E 19:19:23 47° ENE 19:24:16 10° N
Okean 2 3.2 19:16:47 10° N 19:20:57 74° E 19:22:00 48° SSE
Intercosmos 24 4.4 19:18:12 10° S 19:22:35 83° E 19:29:05 10° N
USA 186 3.3 19:24:36 25° N 19:24:36 25° N 19:25:59 10° N
ERS-1 Rocket 3.8 19:25:25 33° NE 19:25:25 33° NE 19:29:14 10° N
Genesis I 4.4 19:22:29 10° NW 19:26:12 39° WSW 19:28:05 23° S
SAR-Lupe-1 4.2 19:26:19 49° S 19:27:09 71° WSW 19:30:45 10° NNW
Okean 1 Rocket 3.9 19:23:00 10° SSW 19:27:22 51° WNW 19:31:46 10° N
Meteor 1-5 Rocket 4.2 19:22:15 10° S 19:28:13 81° E 19:34:08 10° NNE
Cosmos 1892 Rocket 3.4 19:24:47 10° N 19:29:08 69° E 19:29:15 69° E
SAR-Lupe-4 4.3 19:30:26 28° SSW 19:32:01 52° W 19:35:33 10° NNW
NOSS 3-1 (C) 4.1 19:26:53 10° NW 19:34:09 60° NE 19:36:56 41° ESE
Nadezhda 3 Rocket 3.9 19:28:21 10° N 19:34:29 63° ENE 19:36:37 40° SE
Gbstr 26 Del rocket 3.2 19:33:57 10° SW 19:36:53 51° SW 19:36:53 51° SW
Cosmos 2341 Rocket 4.4 19:42:07 43° ENE 19:42:07 43° ENE 19:47:06 10° NNE
H-2A R/B 4.2 19:43:45 13° NNE 19:43:45 13° NNE 19:44:48 10° NNE
GEOS 3 Rocket 3.7 19:39:42 27° NE 19:42:41 77° NW 19:47:57 10° SW
Cosmos 2285 Rocket 4.2 19:36:57 10° NNW 19:43:24 72° WSW 19:47:50 21° S
Cosmos 1025 Rocket 4.1 19:39:55 10° NNW 19:44:05 44° W 19:48:15 10° SSW
Cosmos 405 Rocket 3.1 19:41:23 10° NNW 19:45:01 66° NW 19:45:01 66° NW
Cosmos 2154 Rocket 3.9 19:40:42 10° S 19:46:58 67° E 19:53:17 10° NNE
Cosmos 1939 Rocket 4.3 19:49:02 28° N 19:49:02 28° N 19:51:01 10° N
COSMOS 2428 3.7 19:46:01 10° NW 19:51:23 44° WSW 19:55:38 16° S
Meteor 2-13 Rocket 4.3 19:46:50 10° S 19:52:54 90° WNW 19:59:03 10° N
Cosmos 2237 Rocket 2.0 19:50:03 10° NNW 19:55:47 75° ENE 19:55:53 75° ENE
Cosmos 1066 Rocket 4.3 19:50:08 10° N 19:55:06 58° NE 19:55:06 58° NE
Cosmos 841 Rocket 4.2 19:57:19 10° NNW 20:00:55 41° N 20:00:55 41° N
NOSS 0 Rocket 4.0 20:01:06 10° NNW 20:07:15 71° WSW 20:08:24 57° S
Cosmos 2219 Rocket 2.8 20:07:03 10° NW 20:12:29 52° WSW 20:13:35 45° SSW
Cosmos 2219 3.9 20:09:29 10° SW 20:15:05 51° WNW 20:20:42 10° NNE
Cosmos 1763 Rocket 4.1 20:10:42 10° NNW 20:14:26 49° NNW 20:14:26 49° NNW
SL-16 R/B 3.1 20:23:38 10° NNW 20:27:19 40° N 20:27:19 40° N
Cosmos 2333 Rocket 3.4 20:40:59 10° NW 20:46:10 36° WSW 20:46:14 36° WSW
USA 215 4.1 20:59:49 41° N 20:59:49 41° N 21:05:14 10° NW
NOSS 3-1 (A) 4.3 20:58:14 10° NW 21:04:58 63° W 21:04:58 63° W
ATLAS 2AS CENTAUR R/B 3.6 21:03:56 10° NW 21:10:18 49° N 21:10:18 49° N
H-2A R/B 4.5 21:24:23 17° NNW 21:24:23 17° NNW 21:25:38 10° NNW
